N8LZG Weather Reports


time (UTC)temp
C
wind
direction
speed
KPH
gust
KPH
rain 1hr
cm
rain 24hr
cm
rain mn
cm
humidity
%
barometer
mb
20260507124600 8 337 1.6 8.0 0.00 0.23 0.03 77 1015.7
20260507123055 6 301 0.0 6.4 0.00 0.23 0.03 88 1015.7
20260507121556 5 335 0.0 8.0 0.00 0.23 0.03 87 1015.9
20260507120051 5 28 3.2 14.5 0.00 0.23 0.03 87 1015.8
20260507114550 3 19 0.0 3.2 0.00 0.28 0.03 88 1015.7
20260507113050 3 25 0.0 1.6 0.00 0.28 0.03 88 1015.8
20260507111547 2 11 0.0 0.0 0.00 0.28 0.03 88 1015.6
20260507110056 2 11 0.0 0.0 0.00 0.28 0.03 88 1015.3
20260507104549 2 11 0.0 0.0 0.00 0.36 0.03 88 1015.3
20260507103106 2 11 0.0 0.0 0.00 0.36 0.03 88 1015.1
20260507101540 3 11 0.0 1.6 0.00 0.36 0.03 88 1015.0
20260507100044 3 11 0.0 1.6 0.00 0.36 0.03 88 1015.0
20260507094538 3 11 0.0 0.0 0.00 0.43 0.03 88 1015.1
20260507093037 3 11 0.0 0.0 0.00 0.43 0.03 88 1015.0
20260507091539 3 11 0.0 0.0 0.03 0.43 0.03 88 1014.8
20260507090035 3 11 0.0 0.0 0.03 0.43 0.03 88 1014.8
20260507084542 3 11 0.0 0.0 0.03 0.51 0.03 88 1014.7
20260507083032 3 11 0.0 1.6 0.03 0.51 0.03 88 1014.7
20260507081529 3 11 0.0 0.0 0.00 0.48 0.00 88 1014.5
20260507080027 4 11 0.0 0.0 0.00 0.48 0.00 88 1014.5
20260507074524 4 11 0.0 0.0 0.00 0.58 0.00 88 1014.5
20260507073023 4 11 0.0 0.0 0.00 0.58 0.00 88 1014.6
20260507071525 5 11 0.0 0.0 0.00 0.58 0.00 88 1014.6
20260507070021 5 11 0.0 0.0 0.00 0.58 0.00 88 1014.5
20260507064519 5 11 0.0 0.0 0.00 0.69 0.00 88 1014.6
20260507063017 5 11 0.0 0.0 0.00 0.69 0.00 88 1014.7
20260507061516 5 11 0.0 0.0 0.00 0.69 0.00 88 1014.6
20260507060019 5 11 0.0 0.0 0.00 0.69 0.00 88 1014.6
20260507054513 6 11 0.0 0.0 0.00 0.81 0.00 88 1014.6
20260507053014 6 11 0.0 0.0 0.00 0.81 0.00 88 1014.7
20260507051511 6 11 0.0 0.0 0.00 0.81 0.00 88 1014.6
20260507050031 6 11 0.0 0.0 0.00 0.81 0.00 88 1014.8
20260507044509 6 11 0.0 0.0 0.00 0.94 0.00 88 1014.9
20260507043007 6 11 0.0 1.6 0.00 0.94 0.00 87 1014.7
20260507041507 6 11 0.0 1.6 0.00 0.94 0.00 87 1014.8
20260507040003 6 11 0.0 0.0 0.00 0.94 0.00 87 1014.6
20260507034609 7 11 0.0 0.0 0.00 1.04 0.94 87 1014.6
20260507033100 7 11 0.0 0.0 0.00 1.04 0.94 86 1014.7
20260507031601 7 11 0.0 0.0 0.00 1.04 0.94 86 1014.7
20260507030104 7 11 0.0 0.0 0.00 1.04 0.94 85 1014.8
20260507024558 7 11 0.0 1.6 0.00 1.17 0.94 84 1014.7
20260507023057 8 11 0.0 1.6 0.00 1.17 0.94 84 1014.6
20260507021656 8 11 0.0 0.0 0.00 1.17 0.94 82 1014.6
20260507020110 9 11 0.0 1.6 0.00 1.17 0.94 80 1014.5
20260507014619 10 11 0.0 1.6 0.00 1.24 0.94 77 1014.4
20260507013053 10 11 0.0 1.6 0.00 1.24 0.94 75 1014.1
20260507011558 11 11 0.0 1.6 0.00 1.24 0.94 77 1013.7
20260507010050 11 11 0.0 0.0 0.00 1.24 0.94 74 1014.0
20260507004548 12 11 0.0 1.6 0.00 1.27 0.94 66 1013.9
20260507003047 12 11 0.0 4.8 0.00 1.27 0.94 61 1013.7
20260507001559 13 360 0.0 3.2 0.00 1.27 0.94 58 1013.7
20260507000057 13 104 1.6 4.8 0.00 1.27 0.94 58 1013.5
20260506234601 13 327 1.6 9.7 0.00 1.30 0.94 56 1013.2
20260506233048 14 302 1.6 8.0 0.00 1.30 0.94 54 1013.1
20260506231544 15 62 3.2 9.7 0.00 1.30 0.94 53 1012.8
20260506230045 14 333 0.0 9.7 0.00 1.30 0.94 57 1013.0
20260506224544 14 319 1.6 8.0 0.00 1.30 0.94 53 1013.1
20260506223042 14 324 0.0 4.8 0.00 1.30 0.94 55 1013.3
20260506221551 14 154 1.6 4.8 0.00 1.30 0.94 54 1013.3
20260506220045 14 290 0.0 8.0 0.00 1.30 0.94 58 1013.4
20260506214540 14 298 1.6 4.8 0.00 1.42 0.94 55 1013.4
20260506213044 14 271 3.2 8.0 0.00 1.42 0.94 55 1013.2
20260506211501 15 312 3.2 8.0 0.00 1.42 0.94 54 1012.9
20260506210002 15 360 3.2 12.9 0.00 1.42 0.94 52 1012.9
20260506204601 15 76 1.6 8.0 0.00 1.78 0.94 53 1012.8
20260506203059 15 286 1.6 12.9 0.00 1.78 0.94 53 1012.9
20260506201558 15 324 3.2 11.3 0.00 1.78 0.94 54 1012.9
20260506200058 15 88 1.6 8.0 0.00 1.78 0.94 56 1013.0
20260506194557 15 40 1.6 12.9 0.00 1.88 0.94 51 1012.8
20260506193058 15 220 3.2 9.7 0.00 1.88 0.94 51 1012.7
20260506191605 15 336 4.8 16.1 0.00 1.88 0.94 52 1012.5
20260506190056 16 148 1.6 12.9 0.00 1.88 0.94 53 1012.4
20260506184559 16 327 3.2 11.3 0.00 1.88 0.94 53 1012.5
20260506183102 15 344 4.8 14.5 0.00 1.88 0.94 52 1012.4
20260506181603 16 355 3.2 8.0 0.00 1.88 0.94 53 1012.5
20260506180051 15 278 3.2 19.3 0.00 1.88 0.94 54 1012.6
20260506174549 15 234 3.2 11.3 0.00 1.88 0.94 52 1012.7
20260506173112 15 275 3.2 17.7 0.00 1.88 0.94 60 1012.9
20260506171546 14 251 3.2 12.9 0.00 1.88 0.94 58 1013.0
20260506164544 14 351 3.2 12.9 0.03 1.88 0.94 59 1013.1
20260506163052 13 233 3.2 12.9 0.03 1.88 0.94 61 1013.0
20260506161541 13 242 1.6 8.0 0.03 1.85 0.91 68 1012.9
20260506160043 12 130 1.6 16.1 0.03 1.85 0.91 65 1012.8
20260506154551 12 315 1.6 14.5 0.05 1.85 0.91 69 1012.6
20260506153037 12 240 1.6 6.4 0.05 1.85 0.91 72 1013.1
20260506151534 11 238 1.6 8.0 0.03 1.83 0.89 75 1012.8
20260506150032 11 232 1.6 6.4 0.05 1.83 0.89 79 1012.5
20260506144529 10 341 3.2 14.5 0.03 1.80 0.86 79 1012.1
20260506143028 10 185 1.6 14.5 0.05 1.80 0.86 83 1011.8
20260506141526 10 316 4.8 19.3 0.05 1.80 0.86 84 1011.9
20260506140027 9 306 1.6 9.7 0.05 1.78 0.84 85 1011.9
20260506134523 9 336 3.2 11.3 0.08 1.78 0.84 87 1011.7
20260506133023 8 360 1.6 8.0 0.05 1.75 0.81 87 1011.5
20260506131521 8 44 1.6 9.7 0.05 1.75 0.81 88 1011.2
20260506130022 8 121 0.0 4.8 0.05 1.73 0.79 88 1011.3